Location: Newark
(34.9500°N, 139.9667°E)
Time: 09:00:40
(UTC+00:00)

Vanguard 1 Rocket - Pass Details

Date: 17 December 2019
Orbit: 650 x 4226 km, 34.3° (Epoch: 20 January)

Event Time Altitude Azimuth Distance (km) Brightness Sun altitude
Rises 05:53:40 0° 197° (SSW) 7,952 13.3 15.2°
Reaches altitude 10° 06:00:30 10° 186° (S) 7,232 12.9 14.2°
Maximum altitude 06:19:53 28° 137° (SE) 5,895 11.6 11.2°
Drops below altitude 10° 06:36:42 10° 89° (E) 6,411 11.3 8.5°
Sets 06:42:00 0° 78° (ENE) 6,972 11.3 7.6°
